NOAA 1 DEB *

Satellite information

Favourite Embed

Satellite Type and Status

DEBRISIN ORBIT

Key statistics

Satellite NOAA 1 DEB * at a glance.

Uptime

20049

Days in orbit

Revolutions

≈ 12.4

Per day

Orbit

SSO

Sun Synchronous Orbit

Inclination

102.2

Latest

Satellite identification and parameters

Extended collection of information and parameters for NOAA 1 DEB *.

Object identification

Identified? True

Debris? True

Object name: NOAA 1 DEB *

International designator: 1970-106C

Object number (NORAD): 8828

Object ID (CCSDS): 8828

Country: UNITED STATES OF AMERICA (US)

Current information (Y/N): Y

RCS size: SMALL

Orbital parameters

Period: 116.162 minutes

Inclination: 102.2153 deg

SMA: 7886.248 km

Apoapsis: 1531.139 km

Periapsis: 1485.087 km

RAAN: 275.7809 deg

Eccentricy: 0.00291975

Argument of periapsis: 196.6712 deg

Mean anomaly: 189.2998 deg

Mean motion: 12.39644407 rev/day

Mean motion (dot): 0.00000111 rev/day2

B* drag term: 0.0011787206 1/REarth

Two-line elements (TLE)

Creation date: Oct. 30, 2025, 10:34 a.m.

Reference frame: TEME

Reference center: EARTH

Epoch: Oct. 30, 2025, 4 a.m. UTC

TLE line 0: 0 NOAA 1 DEB *

TLE line 1: 1 08828U 70106C 25303.16689752 .00000111 00000-0 11787-2 0 9996

TLE line 2: 2 08828 102.2153 275.7809 0029197 196.6712 189.2998 12.39644407482831

Live tracking on map

Real-time ground track for satellite NOAA 1 DEB *.

In-orbit conjunctions

A list of the most updated potential collisions computed for object NOAA 1 DEB *.

Target Orbit TCA Probability of collision Miss distance Type
SL-14 DEB LEO 2024-09-27 16:52:48 0.0002485421 766.0 (m) DEBRIS

Associated space launch

Sun-synchronous meteorological satellite

NOAA 1 DEB * was lifted into orbit during the mission ‘Thor Delta N6 | NOAA 1’, on board a Thor Delta N6 space rocket.

The launch took place on Dec. 11, 1970, 11:35 a.m. from Space Launch Complex 2W.

For more information about the launch, click the button.

Launch to space Thor Delta N6 | NOAA 1
Thor Delta N6 | NOAA 1

Agency: N/A

Status: Launch Successful

Launch date: Dec. 11, 1970, 11:35 a.m. UTC

Rocket: Thor Delta N6

Launch pad: Space Launch Complex 2W

Location: Vandenberg SFB, CA, USA

...

Latest news about this satellite

There are no fresh news available about this satellite. Check back as we update our databases every day.


Newsletter sign-up

Weekly statistics, charts and insights to help you stay on top of the space industry.